Dewpoint
58 58 58 57 55 55 53 52 53 52 51 50 49 47 46 46 47 47 47 48 47 48 48 48 49 49 48 40 38 40 53 54 43 38 35 34 32 31 28 23 15 14 15 16 19 22 23
58 57 57 56 55 55 52 53 53 52 51 49 48 46 46 47 47 47 46 47 48 47 48 48 49 50 46 29 21 37 38 33 27 38 35 36 35 29 26 24 23 21 19 18 16 14 14
58 57 57 56 55 54 54 54 52 52 50 49 47 46 46 47 46 46 47 47 47 47 48 48 49 48 44 33 32 31 31 19 19 14 16 16 15 14 13 12 19 20 18 20 21 21 18
58 58 57 56 55 54 54 53 52 50 49 48 47 46 46 46 46 47 47 47 48 47 48 48 49 47 39 38 39 37 27 20 21 20 20 20 20 18 13 14 13 15 20 19 21 22 21
59 58 57 56 54 54 54 53 51 50 49 48 47 46 46 45 46 47 47 47 48 47 48 48 46 45 40 46 38 36 24 20 20 22 25 16 24 19 18 10 9 18 11 14 16 22 21
59 58 57 55 54 54 53 52 51 50 49 49 47 45 45 45 46 47 47 47 46 46 46 44 42 41 41 29 15 18 19 21 20 20 15 13 19 23 14 11 6 11 18 18 18 16 20
59 58 56 55 54 54 52 51 50 49 48 48 46 44 44 44 44 46 45 38 25 29 36 37 37 37 29 26 14 13 17 21 22 18 13 13 7 11 21 14 15 11 7 7 7 10 13
59 57 56 55 54 53 53 50 48 48 49 48 44 43 43 43 43 45 43 29 28 27 26 27 26 31 32 27 20 17 18 17 20 16 17 11 9 10 16 22 17 14 11 10 11 12 11
58 57 56 55 54 54 51 49 49 49 48 45 43 41 42 43 44 42 34 29 35 33 27 23 23 21 21 21 17 14 20 22 19 19 19 18 17 17 16 14 13 15 16 16 15 14 13
57 55 55 54 54 52 49 49 49 48 46 44 42 41 42 44 41 39 32 32 32 36 27 21 21 21 24 24 20 17 12 18 10 9 11 14 15 14 10 9 12 11 14 14 13 10 13
56 55 54 53 52 50 50 50 49 46 44 42 41 41 42 41 38 32 34 35 35 38 4 22 23 24 24 15 13 14 11 11 8 6 7 4 3 1 3 2 3 6 19 17 14 13 25
55 54 53 52 50 50 50 50 47 45 42 41 41 42 41 40 40 38 37 38 37 29 9 10 15 10 11 11 10 10 11 16 12 9 7 5 4 2 6 17 21 21 20 18 20 27 20
53 52 52 51 51 50 50 47 45 43 41 40 41 40 39 39 34 38 39 35 27 21 13 7 9 10 11 9 9 9 10 10 12 10 11 16 18 18 20 20 23 23 20 18 18 20 16
52 51 51 51 50 49 47 45 43 43 41 41 40 40 39 38 38 40 38 29 19 14 8 9 9 10 9 10 10 10 13 14 11 18 22 20 14 19 21 19 18 17 27 19 14 17 18
51 51 51 50 48 46 45 44 43 41 41 40 39 37 37 40 40 40 34 22 16 8 8 7 7 9 9 10 12 13 16 15 18 27 22 22 18 21 20 20 30 27 26 26 23 22 21
51 49 48 47 46 45 45 43 42 42 40 39 36 38 37 38 40 39 31 25 10 8 7 8 7 10 10 9 11 14 16 17 18 23 29 25 19 19 18 22 26 31 29 24 27 17 17
48 47 46 45 45 45 44 42 41 40 39 39 36 34 37 37 39 35 25 25 11 9 11 8 9 12 11 14 13 15 14 15 21 23 27 24 24 19 22 25 26 31 31 29 29 29 20
46 45 45 44 43 45 41 41 41 41 39 37 36 31 36 38 31 32 26 17 21 13 17 16 18 18 19 19 19 19 17 18 25 27 21 31 27 21 21 22 22 31 32 30 24 21 28
45 45 44 44 44 42 41 41 41 39 40 38 34 29 34 37 23 25 22 15 15 19 20 21 21 22 21 20 20 24 24 28 30 28 25 30 23 18 16 27 31 32 34 34 33 33 29
45 44 43 43 42 41 41 41 39 40 40 37 36 26 28 32 29 25 23 21 19 23 22 23 21 23 25 24 24 22 22 25 30 29 30 34 27 22 17 18 23 25 30 32 32 28 28
45 44 43 42 40 41 41 39 39 39 40 38 32 28 29 25 25 24 25 24 21 20 24 23 22 25 24 22 22 22 26 27 29 31 32 34 28 28 27 25 24 23 32 33 32 32 27
43 43 43 43 41 41 40 39 38 39 40 37 30 25 27 29 24 21 25 24 21 22 24 23 24 25 26 24 23 22 27 26 26 32 34 31 27 30 27 29 28 29 33 28 27 30 30
43 43 43 43 42 41 40 38 40 40 40 35 34 31 29 28 25 25 26 25 23 25 26 26 26 29 28 28 29 31 31 31 29 28 27 29 29 30 27 31 32 24 28 25 25 25 24
43 42 42 43 41 40 39 40 41 41 41 37 35 32 29 23 21 23 26 25 26 27 17 27 29 30 31 35 35 34 34 33 33 31 31 30 31 32 28 29 16 28 32 26 24 24 24
42 41 41 42 41 40 41 41 41 41 42 38 38 33 29 25 26 23 24 26 25 26 26 26 31 32 34 35 31 27 30 30 30 31 35 35 33 29 27 24 26 25 24 24 26 22 26
41 41 42 42 42 41 41 41 41 41 42 40 39 37 33 27 27 28 25 24 22 22 23 27 31 35 35 33 29 24 25 28 26 29 28 32 35 31 28 20 17 22 22 25 27 17 27
42 42 43 41 42 42 41 41 41 41 42 40 38 38 33 25 29 29 25 23 27 25 23 26 27 30 31 26 23 24 27 30 24 26 25 24 27 23 24 21 22 23 24 26 16 18 27
42 43 42 42 43 43 42 41 43 42 42 40 38 38 33 24 29 32 33 28 26 27 22 25 27 28 27 23 24 25 27 30 27 27 27 23 23 20 21 18 15 25 21 20 26 28 27
42 42 42 43 43 43 42 43 42 42 42 41 36 40 38 30 28 34 33 31 31 30 28 29 32 28 28 25 26 28 27 28 27 23 28 22 27 22 22 20 26 26 25 27 28 26 27
Lifted_Index
2 2 2 2 3 3 5 6 8 11 13 13 14 15 15 15 15 16 16 16 15 16 16 16 15 15 13 12 12 12 12 12 12 12 12 11 10 9 9 9 9 9 9 9 9 9 8
2 2 2 2 3 3 5 6 8 10 13 14 14 15 15 15 15 16 16 16 16 16 16 15 15 14 13 11 12 12 12 12 12 12 11 11 10 9 9 9 9 8 8 8 8 8 8
2 1 1 2 3 4 5 6 7 10 12 13 14 15 15 16 16 16 16 16 16 15 15 15 14 13 12 11 12 12 11 11 11 11 11 10 10 10 10 9 8 8 7 7 7 7 7
1 1 1 1 2 4 5 6 8 9 11 13 14 15 15 15 16 16 16 15 15 15 14 14 13 11 10 10 11 10 10 10 10 10 10 9 9 10 10 9 7 6 6 5 5 6 6
1 1 1 1 2 4 5 7 8 10 11 13 13 14 15 15 15 15 15 15 15 14 13 13 12 11 10 9 9 9 9 9 9 9 9 9 9 9 8 7 6 5 4 4 5 6 6
2 1 1 1 2 4 6 8 9 10 11 12 13 14 15 15 15 15 15 15 14 13 12 11 11 10 9 9 9 9 9 9 9 9 9 9 8 7 7 6 5 4 5 5 5 6 6
2 2 1 1 2 4 6 8 9 10 11 12 13 14 15 15 15 15 15 14 13 12 11 10 10 10 9 9 9 9 9 9 9 8 8 8 7 6 6 6 6 6 6 6 6 6 7
1 1 1 1 2 5 7 9 9 10 11 12 13 15 15 15 15 14 14 14 14 12 11 10 10 10 10 9 9 9 9 9 8 7 7 7 6 7 7 8 7 7 7 6 6 6 6
1 1 0 1 3 5 7 8 9 10 11 12 13 15 15 15 14 14 14 14 14 12 10 9 10 10 9 9 9 9 9 8 8 7 7 7 7 8 9 8 8 7 6 6 5 5 4
0 -0 0 2 4 5 7 8 9 10 11 12 14 15 15 15 14 13 13 13 13 12 9 8 9 9 8 8 8 8 8 8 8 8 8 8 8 9 9 9 8 7 5 4 3 3 3
-0 0 1 3 5 6 7 9 10 11 11 13 14 14 14 14 13 13 13 13 12 10 7 8 9 8 7 7 8 8 8 9 9 9 9 9 9 10 10 9 8 6 4 3 2 1 1
-0 0 1 3 5 7 8 9 10 11 12 13 13 13 13 13 12 12 12 12 10 8 6 7 8 8 7 7 8 8 9 9 9 9 9 10 10 10 9 7 6 4 2 2 1 0 0
-0 -0 1 4 6 8 9 10 11 12 13 13 13 13 13 12 12 12 11 10 8 7 7 7 8 8 7 8 8 9 9 9 9 9 9 10 9 8 6 4 3 2 1 1 0 -0 0
-0 0 2 5 7 8 9 10 11 12 13 14 13 13 12 12 11 11 10 8 6 6 6 6 6 7 7 8 9 10 10 10 9 9 9 9 8 6 4 3 2 1 0 -0 -0 0 0
1 2 4 7 8 9 10 11 12 13 13 13 13 12 12 11 11 10 8 7 6 5 6 6 6 6 7 8 9 10 10 10 9 8 8 7 6 5 3 2 1 1 0 -0 0 0 0
3 5 7 8 9 9 10 11 12 13 13 13 12 11 11 11 10 8 7 6 6 6 6 6 6 7 7 8 9 10 11 10 9 7 6 5 4 3 3 2 1 0 -0 -0 0 0 0
6 7 8 9 9 10 11 12 13 13 13 12 11 10 10 9 8 7 6 6 6 7 7 7 8 8 8 9 10 10 10 9 7 5 4 3 3 3 2 2 1 0 -0 -0 0 0 0
8 8 9 9 10 11 12 12 13 13 12 11 9 9 9 8 6 5 5 6 7 8 8 9 9 9 9 9 9 9 8 6 5 4 3 3 3 2 2 1 1 0 0 0 0 0 0
9 9 10 10 11 11 12 12 13 12 11 10 8 8 8 7 5 5 5 6 7 8 9 9 9 9 9 9 8 6 5 4 3 3 3 3 2 2 1 1 1 1 0 0 0 0 0
10 10 10 11 11 12 12 12 13 12 10 8 7 7 7 6 5 5 6 7 8 8 8 9 9 8 8 7 6 5 4 3 3 3 3 3 2 2 1 1 1 1 0 0 0 0 1
10 10 10 11 12 12 12 12 12 11 9 7 6 6 6 5 6 6 7 7 7 8 8 8 7 7 6 6 5 4 4 3 3 3 3 3 2 2 2 2 2 1 0 0 0 0 1
10 10 10 11 11 12 12 12 11 9 8 6 5 5 5 6 6 7 7 8 7 7 6 6 5 5 5 4 4 3 3 3 3 3 3 3 2 2 1 1 1 1 0 0 1 1 1
10 10 10 10 11 11 11 11 10 8 6 5 5 5 5 6 6 7 7 7 7 6 5 4 4 4 4 3 3 3 3 3 3 3 2 2 2 2 1 1 1 1 1 2 2 2 2
10 10 10 10 10 10 10 10 8 7 6 6 6 6 6 6 6 7 7 6 6 5 4 3 3 3 3 2 2 2 2 2 2 2 2 2 1 1 1 1 1 2 3 3 3 3 3
10 10 9 9 9 9 9 8 7 7 6 6 6 6 6 6 6 7 6 6 5 5 4 3 3 3 2 2 1 1 1 1 1 2 1 1 1 1 1 1 2 2 3 3 3 3 4
10 9 9 9 9 8 8 8 7 7 6 6 6 6 6 6 6 6 6 6 5 4 4 3 3 3 2 2 1 1 1 1 1 1 1 1 1 1 0 1 1 2 3 3 3 4 5
9 9 8 8 8 7 7 7 7 7 6 7 7 7 6 6 6 6 6 6 6 4 3 3 3 3 3 2 1 1 1 1 1 1 1 1 0 0 1 1 2 3 3 3 4 5 6
8 8 8 8 7 7 7 7 7 7 7 7 7 7 7 7 7 6 6 6 6 5 3 3 3 3 3 2 1 1 1 1 2 2 1 1 1 1 1 1 3 4 5 5 6 7 7
8 8 8 7 7 7 7 7 7 7 7 7 7 8 8 8 7 7 7 7 7 5 4 3 3 3 3 2 2 1 1 1 2 2 2 2 1 1 1 2 4 6 6 7 8 8 8